Syracuse, NY

8:15 AM EST on December 08, 2019 (GMT -0500)
Syracuse Hancock International

Weather History for KSYR - October, 2019

Change the Weather History Date:

Friday, October 18, 2019

  Actual Average Record
Temperature  
Mean Temperature 44 °F 50 °F  
Max Temperature 46 °F 59 °F 83 °F (1947)
Min Temperature 41 °F 40 °F 26 °F (1939)
Degree Days  
Heating Degree Days 21 15  
Month to date heating degree days 217 225  
Since 1 July heating degree days 292 392  
Cooling Degree Days 0 0  
Month to date cooling degree days 11 0  
Year to date cooling degree days 622 565  
Moisture  
Dew Point 40 °F    
Average Humidity 82    
Maximum Humidity 93    
Minimum Humidity 71    
Precipitation  
Precipitation T in 0.10 in 1.27 in (1928)
Month to date precipitation 3.37 2.01  
Year to date precipitation 37.50 30.29  
Snow  
Snow 0.00 in 0.10 in T in (2018)
Month to date snowfall 0.0 0.1  
Since 1 July snowfall T 0.1  
Since 1 September snowfall T 0.1  
Snow Depth 0.00 in    
Sea Level Pressure  
Sea Level Pressure 29.91 in    
Wind  
Wind Speed 10 mph ()    
Max Wind Speed 20 mph    
Max Gust Speed 23 mph    
Visibility 10.0 miles    
Events Rain    
T = Trace of Precipitation, MM = Missing Value Source: Averaged Metar Reports

Daily Weather History Graph

Daily Weather History Graph

Search for Another Location

Airport or City:

Astronomy

Oct. 18, 2019 Rise Set
Actual Time 7:21 AM EDT 6:17 PM EDT
Civil Twilight 6:52 AM EDT 6:45 PM EDT
Nautical Twilight 6:19 AM EDT 7:18 PM EDT
Astronomical Twilight 5:46 AM EDT 7:51 PM EDT
Moon 9:25 PM EDT (10/18) 11:57 AM EDT (10/18)
Length of Visible Light 11h 53m
Length of Day
10h 55m
Waning Gibbous, 79% of the Moon is Illuminated
Oct 18
Waning Gibbous
Oct 21
Last Quarter
Oct 27
New
Nov 4
First Quarter
Nov 12
Full

Hourly Weather History & Observations

Time (EDT) Temp. Windchill Dew Point Humidity Pressure Visibility Wind Dir Wind Speed Gust Speed Precip Events Conditions
12:54 AM 46.9 °F - 42.1 °F 83% 29.71 in 10.0 mi WNW 10.4 mph - 0.00 in Rain Light Rain
1:54 AM 46.0 °F 40.2 °F 43.0 °F 89% 29.73 in 10.0 mi West 12.7 mph - 0.00 in Rain Light Rain
2:54 AM 46.0 °F 40.2 °F 43.0 °F 89% 29.75 in 10.0 mi West 12.7 mph - 0.00 in Rain Light Rain
3:54 AM 46.0 °F 39.9 °F 43.0 °F 89% 29.76 in 10.0 mi West 13.8 mph - 0.00 in Rain Light Rain
4:04 AM 46.0 °F 40.6 °F 42.1 °F 86% 29.77 in 10.0 mi West 11.5 mph - 0.00 in   Overcast
4:54 AM 45.0 °F 39.3 °F 42.1 °F 90% 29.79 in 10.0 mi West 11.5 mph - 0.00 in   Overcast
4:57 AM 45.0 °F 39.3 °F 42.1 °F 90% 29.79 in 10.0 mi West 11.5 mph - N/A   Overcast
5:54 AM 45.0 °F 38.9 °F 42.1 °F 90% 29.82 in 10.0 mi West 12.7 mph - N/A   Overcast
6:54 AM 45.0 °F 39.3 °F 41.0 °F 86% 29.85 in 10.0 mi West 11.5 mph - 0.00 in Rain Light Rain
7:54 AM 44.1 °F 39.0 °F 42.1 °F 93% 29.87 in 10.0 mi West 9.2 mph - 0.00 in   Overcast
8:10 AM 45.0 °F 40.1 °F 42.1 °F 90% 29.89 in 10.0 mi West 9.2 mph - N/A   Overcast
8:54 AM 45.0 °F 40.6 °F 42.1 °F 90% 29.90 in 10.0 mi West 8.1 mph - N/A   Overcast
9:54 AM 46.0 °F 41.0 °F 39.9 °F 79% 29.91 in 10.0 mi WNW 10.4 mph - N/A   Overcast
10:54 AM 46.0 °F 39.6 °F 39.9 °F 79% 29.93 in 10.0 mi WNW 15.0 mph 23.0 mph N/A   Overcast
11:54 AM 46.0 °F 39.9 °F 37.9 °F 73% 29.94 in 10.0 mi WNW 13.8 mph 21.9 mph N/A   Overcast
12:54 PM 46.0 °F 39.9 °F 37.9 °F 73% 29.95 in 10.0 mi WNW 13.8 mph - N/A   Overcast
1:54 PM 46.0 °F 39.6 °F 37.9 °F 73% 29.96 in 10.0 mi West 15.0 mph 21.9 mph N/A   Overcast
2:54 PM 46.9 °F - 37.9 °F 71% 29.97 in 10.0 mi West 13.8 mph - N/A   Overcast
3:54 PM 46.9 °F - 37.9 °F 71% 29.98 in 10.0 mi WNW 9.2 mph - N/A   Overcast
4:54 PM 46.9 °F - 39.0 °F 74% 30.00 in 10.0 mi WNW 11.5 mph - N/A   Overcast
5:54 PM 46.9 °F - 37.9 °F 71% 30.00 in 10.0 mi West 8.1 mph - N/A   Mostly Cloudy
6:01 PM 46.0 °F 41.9 °F 39.0 °F 76% 30.00 in 10.0 mi West 8.1 mph - N/A   Mostly Cloudy
6:54 PM 46.0 °F 41.4 °F 37.9 °F 73% 30.01 in 10.0 mi West 9.2 mph - N/A   Mostly Cloudy
7:54 PM 43.0 °F 40.3 °F 37.9 °F 82% 30.03 in 10.0 mi WSW 4.6 mph - N/A   Mostly Cloudy
8:54 PM 42.1 °F 40.2 °F 37.9 °F 85% 30.03 in 10.0 mi South 3.5 mph - N/A   Mostly Cloudy
9:54 PM 43.0 °F - 39.0 °F 86% 30.04 in 10.0 mi Calm Calm - N/A   Mostly Cloudy
10:54 PM 45.0 °F 41.2 °F 39.9 °F 82% 30.03 in 10.0 mi WSW 6.9 mph - N/A   Overcast
11:54 PM 46.0 °F 41.9 °F 39.9 °F 79% 30.04 in 10.0 mi WSW 8.1 mph - N/A   Overcast